Hourly Data Report for October 01, 2022

HAMILTON A
ONTARIO
Current Station Operator: NAVCAN

43°10'25.000" N
79°56'06.000" W
237.70 m
6153193
71263
YHM

Download Data

Hourly Data (October 2022)
Hourly Data Report for October 1, 2022
TIME
LST
Temp Definition
°C
Dew Point Definition
°C
Rel Hum Definition
%
Precip. Amount Definition
mm

Wind Dir Definition
10's deg

Wind Spd Definition
km/h
Visibility Definition
km
Stn Press Definition
kPa
Hmdx Definition


Wind Chill Definition


Weather Definition


00:00 8.1 5.9 86   1 11 24.1 99.38     LegendNANA
01:00 7.9 4.6 80   1 11 24.1 99.35     Mainly Clear
02:00 7.9 3.5 74   2 10 24.1 99.34     LegendNANA
03:00 7.5 3.1 74   3 9 24.1 99.31     LegendNANA
04:00 7.2 3.2 76   3 9 24.1 99.33     Mostly Cloudy
05:00 8.1 4.4 77   1 13 24.1 99.33     LegendNANA
06:00 7.9 5.5 85   3 9 24.1 99.34     LegendNANA
07:00 9.5 7.6 88   2 15 24.1 99.30     Mostly Cloudy
08:00 11.1 7.8 80   1 19 24.1 99.26     LegendNANA
09:00 13.0 8.1 72   3 18 24.1 99.28     LegendNANA
10:00 14.8 9.0 68   3 21 24.1 99.32     Mostly Cloudy
11:00 16.4 8.6 59   5 26 24.1 99.32     LegendNANA
12:00 17.1 9.0 58   5 22 24.1 99.28     LegendNANA
13:00 16.2 6.8 53   4 29 24.1 99.26     Mostly Cloudy
14:00 16.7 6.6 51   3 31 24.1 99.21     LegendNANA
15:00 16.3 5.3 48   4 23 24.1 99.18     LegendNANA
16:00 16.3 5.8 50   4 20 24.1 99.17     Mostly Cloudy
17:00 15.4 7.6 60   4 22 24.1 99.19     LegendNANA
18:00 14.3 9.0 70   3 16 24.1 99.22     LegendNANA
19:00 12.7 9.7 82   3 12 24.1 99.24     Mostly Cloudy
20:00 12.4 9.1 80   2 13 24.1 99.29     LegendNANA
21:00 13.9 9.5 75   4 22 24.1 99.31     LegendNANA
22:00 14.3 9.8 74   5 32 24.1 99.34     Mostly Cloudy
23:00 13.8 9.3 74   4 40 24.1 99.39     LegendNANA

Notes on Data Quality.

Legend

  • E = Estimated
  • M = Missing
  • NA = Not Available*
  • [empty] = Indicates an unobserved value
Date modified: